TimeEDT,TemperatureF,Dew PointF,Humidity,Sea Level PressureIn,VisibilityMPH,Wind Direction,Wind SpeedMPH,Gust SpeedMPH,PrecipitationIn,Events,Conditions,WindDirDegrees,DateUTC
12:10 AM,73.4,69.8,88,29.86,10.0,SSW,6.9,-,N/A,,Scattered Clouds,210,2013-05-24 04:10:00
12:57 AM,73.0,70.0,90,29.87,10.0,SW,6.9,-,N/A,,Partly Cloudy,220,2013-05-24 04:57:00
1:52 AM,71.6,69.8,94,29.84,10.0,SW,5.8,-,N/A,,Partly Cloudy,220,2013-05-24 05:52:00
2:06 AM,71.6,69.8,94,29.83,10.0,SW,4.6,-,N/A,,Mostly Cloudy,220,2013-05-24 06:06:00
2:33 AM,73.4,69.8,88,29.82,10.0,WSW,4.6,-,N/A,,Overcast,240,2013-05-24 06:33:00
2:57 AM,72.0,70.0,93,29.82,10.0,WSW,5.8,-,N/A,,Overcast,240,2013-05-24 06:57:00
3:33 AM,71.6,68.0,88,29.79,10.0,WSW,4.6,-,N/A,,Scattered Clouds,240,2013-05-24 07:33:00
3:57 AM,70.0,66.9,90,29.81,9.0,Calm,Calm,-,N/A,,Clear,0,2013-05-24 07:57:00
4:57 AM,70.0,66.9,90,29.82,9.0,West,4.6,-,N/A,,Clear,260,2013-05-24 08:57:00
5:57 AM,70.0,66.0,87,29.84,10.0,NW,5.8,-,N/A,,Scattered Clouds,320,2013-05-24 09:57:00
6:22 AM,69.8,64.4,83,29.83,10.0,NW,5.8,-,N/A,,Mostly Cloudy,320,2013-05-24 10:22:00
6:57 AM,69.1,64.9,87,29.85,10.0,NNW,4.6,-,N/A,,Overcast,340,2013-05-24 10:57:00
7:18 AM,69.8,66.2,88,29.84,10.0,NW,5.8,-,N/A,,Mostly Cloudy,320,2013-05-24 11:18:00
7:57 AM,72.0,66.0,81,29.85,10.0,North,6.9,-,N/A,,Clear,360,2013-05-24 11:57:00
8:57 AM,73.9,63.0,68,29.86,10.0,North,8.1,-,N/A,,Clear,350,2013-05-24 12:57:00
9:57 AM,77.0,63.0,62,29.87,10.0,NNW,6.9,18.4,N/A,,Partly Cloudy,340,2013-05-24 13:57:00
10:36 AM,77.0,62.6,61,29.87,10.0,NW,11.5,-,N/A,,Mostly Cloudy,310,2013-05-24 14:36:00
10:46 AM,77.0,60.8,57,29.87,10.0,WNW,10.4,-,N/A,,Mostly Cloudy,300,2013-05-24 14:46:00
10:57 AM,78.1,62.1,58,29.88,10.0,NW,11.5,-,N/A,,Scattered Clouds,320,2013-05-24 14:57:00
11:57 AM,78.1,60.1,54,29.90,10.0,NW,13.8,18.4,N/A,,Mostly Cloudy,310,2013-05-24 15:57:00
12:57 PM,79.0,57.9,48,29.90,10.0,NW,13.8,21.9,N/A,,Clear,310,2013-05-24 16:57:00
1:57 PM,78.1,57.0,48,29.91,10.0,NNW,13.8,25.3,N/A,,Scattered Clouds,330,2013-05-24 17:57:00
2:57 PM,75.9,55.9,50,29.93,10.0,NNW,13.8,24.2,N/A,,Mostly Cloudy,330,2013-05-24 18:57:00
3:57 PM,78.1,53.1,42,29.94,10.0,NNW,11.5,25.3,N/A,,Partly Cloudy,330,2013-05-24 19:57:00
4:57 PM,75.9,52.0,43,29.96,10.0,NW,17.3,25.3,N/A,,Clear,320,2013-05-24 20:57:00
5:57 PM,73.0,50.0,44,29.99,10.0,NNW,12.7,21.9,N/A,,Partly Cloudy,330,2013-05-24 21:57:00
6:57 PM,73.0,46.0,38,30.01,10.0,NW,9.2,20.7,N/A,,Partly Cloudy,320,2013-05-24 22:57:00
7:57 PM,68.0,45.0,43,30.05,10.0,NNW,9.2,-,N/A,,Clear,330,2013-05-24 23:57:00
8:57 PM,64.9,44.1,47,30.09,10.0,NNW,5.8,-,N/A,,Clear,330,2013-05-25 00:57:00
9:57 PM,63.0,44.1,50,30.13,10.0,NW,6.9,-,N/A,,Clear,320,2013-05-25 01:57:00
10:57 PM,61.0,42.1,50,30.16,10.0,NNW,8.1,-,N/A,,Clear,330,2013-05-25 02:57:00
11:57 PM,59.0,39.0,48,30.16,10.0,Variable,4.6,-,N/A,,Clear,0,2013-05-25 03:57:00